Tracking 20712 objects as of 30-May-2020
HD Live streaming from Space Station
objects crossing your sky now

OPS 2222

Track OPS 2222 now!
OPS 2222 is classified as:


NORAD ID: 3334
Int'l Code: 1968-063A
Perigee: 31,999.4 km
Apogee: 40,168.3 km
Inclination: 11.4 °
Period: 1,450.9 minutes
Semi major axis: 42454 km
RCS: Unknown
Launch date: August 6, 1968
Source: United States (US)
Launch site: AIR FORCE EASTERN TEST RANGE (AFETR)
aabbcc
Your satellite tracking list
Your tracking list is empty




NASA's NSSDC Master Catalog

Two Line Element Set (TLE):
1  3334U 68063A   20150.47225280 -.00000058 +00000-0 +00000-0 0  9998
2  3334 011.4268 309.4050 0962076 168.6131 019.1235 00.99245789004192
Source of the keplerian elements: McCants